User: anonymous   Login
Location: Unspecified
(0.0000°N, 0.0000°E)
Time: 23:20:20
(UTC+00:00)
Language:

STARLINK-3970 - Orbit

View from above orbital plane
View from above orbital plane
View from above satellite
View from above satellite

Ground track
Ground track

The orbit is defined by the following mean orbital elements,

1 52706U          26145.38803280 +.00000000 +00000-0 +28515-4 0 00008
2 52706  53.2114 149.8071 0001147  57.9105 302.1999 15.08834409    03
Epoch (UTC): 25 May 2026 09:18:46
Eccentricity: 0.0001147
inclination: 53.2114°
perigee height: 539 km
apogee height: 541 km
right ascension of ascending node: 149.8071°
argument of perigee: 57.9105°
revolutions per day: 15.08834409
mean anomaly at epoch: 302.1999°

The dashed part of the orbit path shows where the satellite is in the earth's shadow,  

DLR